Wind_Speed
22 23 23 23 21 21 22 21 22 23 23 23 23 22 21 21 21 20 19 18 16 16 17 15 14 14 13 14 15 15 14 13 12 12 13 14 15 15 14 14 12 11
19 21 22 21 20 20 21 22 21 22 23 23 23 22 20 20 20 19 19 18 17 17 17 16 14 14 12 13 15 14 14 13 12 13 13 13 14 15 15 15 13 13
17 19 21 21 21 20 21 23 20 19 23 23 22 22 20 20 21 19 18 18 18 16 16 15 14 14 13 13 13 12 14 14 12 12 13 12 13 14 15 15 14 13
18 18 20 21 21 21 22 22 18 19 23 23 21 22 21 20 20 19 17 18 17 14 14 15 15 14 13 12 12 12 12 12 10 11 12 11 11 13 13 14 15 14
18 17 18 20 21 22 22 20 17 20 23 22 22 22 21 20 18 18 18 17 16 14 13 14 14 13 12 12 12 12 12 12 10 10 11 10 10 12 13 15 16 14
18 17 17 18 21 23 22 17 17 22 24 23 23 22 21 20 18 17 17 15 15 14 13 13 13 13 12 12 12 12 12 12 11 10 10 11 11 12 14 15 15 14
18 18 19 19 21 23 19 17 20 24 24 24 24 22 21 20 17 16 14 13 14 14 13 13 13 13 13 11 12 13 12 11 12 11 10 11 12 12 13 13 13 13
19 19 21 20 21 21 18 20 23 25 25 24 24 22 20 18 17 15 13 12 14 14 13 13 13 14 13 12 12 13 11 10 11 12 12 12 13 13 13 12 11 12
20 20 21 21 22 22 21 23 23 24 24 23 22 21 19 17 17 16 14 13 13 13 13 13 12 12 12 12 11 11 11 10 10 12 13 12 13 14 14 13 11 12
19 21 22 22 23 23 25 24 21 22 22 20 21 20 17 16 16 15 14 14 14 13 13 13 11 11 12 12 10 10 11 10 9 11 12 12 13 14 14 13 12 13
22 25 23 22 23 25 26 23 21 21 18 18 21 18 15 17 17 14 14 14 15 13 12 13 11 10 12 11 9 11 11 10 11 11 11 12 13 13 14 14 14 15
23 25 24 21 23 25 25 23 22 22 19 19 20 16 15 18 17 14 14 14 14 12 12 13 12 11 12 10 9 10 9 10 13 12 10 12 13 13 13 14 14 15
21 22 23 22 24 26 25 23 23 22 20 19 17 16 17 18 16 15 15 14 14 14 14 15 13 12 13 12 10 9 10 13 14 11 11 13 13 13 13 12 13 14
20 20 22 23 26 28 25 23 23 22 20 18 18 18 16 15 16 16 14 15 16 16 16 15 14 14 15 13 11 10 12 14 12 11 13 14 14 13 13 13 13 12
21 22 24 22 24 26 24 22 22 20 19 19 19 18 15 14 16 16 15 17 19 18 17 16 16 15 14 13 13 12 11 11 11 12 14 15 15 14 15 15 14 11
22 25 25 21 21 21 20 21 21 19 19 19 18 16 15 16 17 16 18 20 21 20 19 18 18 18 16 15 14 12 11 10 10 11 12 13 14 15 15 14 13 10
23 24 24 22 21 20 19 20 21 21 19 18 17 17 17 17 18 20 23 22 21 22 21 20 20 19 18 17 15 13 12 12 11 11 10 11 13 14 15 14 13 12
22 21 20 20 20 21 23 23 23 22 21 20 20 20 19 19 21 24 24 22 21 21 20 19 19 18 17 16 15 15 14 14 13 12 11 12 13 14 15 15 15 15
24 21 19 19 17 20 26 28 26 26 25 24 23 22 22 23 24 23 22 21 20 19 18 17 16 15 15 14 14 13 13 14 14 14 14 14 14 15 15 15 15 15
25 23 21 20 19 22 28 29 28 28 29 27 26 24 24 25 24 23 22 20 19 18 17 16 14 14 13 13 12 11 11 12 13 13 14 14 13 13 13 12 12 11
27 26 25 24 23 25 28 29 29 29 28 28 26 25 24 23 22 21 20 19 17 15 14 13 12 11 11 12 11 9 8 9 11 12 12 12 12 11 10 10 8 7
28 29 28 28 26 26 27 28 27 26 26 26 25 23 22 20 19 17 16 16 14 11 10 11 9 7 8 9 9 8 6 7 8 9 10 9 9 9 9 9 8 6
25 28 28 28 26 25 26 27 26 23 22 23 22 20 17 15 15 14 13 12 11 10 10 10 8 6 6 7 7 7 6 6 7 8 9 8 9 9 8 8 8 6
22 25 26 26 26 24 24 24 24 21 18 18 19 17 15 13 13 13 13 12 11 11 11 10 10 9 7 7 7 6 7 9 9 10 11 11 11 12 11 9 9 8
21 22 23 23 24 23 22 22 22 19 17 16 16 15 15 14 13 13 14 14 14 14 14 14 15 14 11 9 9 8 9 12 14 14 15 14 15 16 15 12 11 10
22 21 21 21 22 22 22 22 22 21 19 17 17 16 16 15 14 15 17 17 16 16 16 17 17 16 14 12 11 12 12 13 16 18 17 16 15 16 15 14 12 11
Wind_Direction
194 193 192 190 188 186 179 171 167 163 162 161 158 157 153 150 151 153 155 156 158 159 158 159 158 157 165 172 173 175 178 184 187 183 181 180 179 178 175 171 167 160
200 199 196 193 190 186 180 174 169 166 164 161 160 161 156 152 151 151 153 153 152 153 155 159 159 155 156 162 166 172 176 177 177 182 184 183 183 183 177 171 168 166
204 201 197 195 192 186 180 175 172 169 164 159 157 158 155 152 152 150 148 149 146 147 155 159 159 161 160 159 163 167 171 173 172 179 184 181 182 183 177 172 167 169
208 204 198 197 194 188 181 176 171 164 159 157 153 151 150 149 151 152 148 148 146 143 150 155 157 164 162 161 167 163 161 163 162 171 179 180 182 182 177 172 167 171
206 207 202 199 195 189 183 176 170 163 158 157 155 151 150 147 147 152 150 145 144 140 145 153 156 159 155 153 158 152 149 154 155 162 172 176 178 176 172 168 168 173
204 209 208 202 194 188 184 177 169 163 159 157 156 153 151 149 144 145 143 137 139 142 144 150 151 151 151 153 156 152 150 153 153 155 165 170 169 168 166 164 168 174
196 206 207 198 188 185 183 176 166 160 157 154 153 151 149 150 146 137 132 131 139 145 145 146 148 149 151 154 153 152 151 151 155 157 159 162 163 163 164 166 170 170
185 195 200 192 184 185 180 169 161 157 155 151 149 149 149 151 150 143 135 134 140 147 147 145 147 150 154 156 151 150 149 148 160 166 161 160 165 167 168 169 170 166
179 184 192 187 183 182 171 159 154 153 153 148 146 148 150 151 152 150 145 139 140 149 150 146 147 152 155 152 149 152 152 146 151 158 157 158 163 166 167 166 164 163
176 178 187 186 179 171 160 154 152 152 152 150 147 148 151 152 150 151 153 147 144 149 152 152 152 152 147 145 146 146 145 142 142 148 152 156 159 162 164 161 156 157
180 180 183 181 171 162 159 160 158 153 148 149 151 150 152 151 148 153 156 149 148 153 157 156 151 145 142 142 138 130 128 131 134 140 148 152 154 158 163 160 155 157
181 177 176 172 163 158 160 160 156 151 148 150 152 150 147 147 150 156 153 146 149 155 157 153 148 145 144 140 133 128 130 135 133 132 137 145 152 157 160 160 157 158
175 171 171 167 159 156 157 154 150 151 151 154 154 147 143 149 153 153 150 149 152 153 152 153 155 150 142 139 135 126 126 133 133 130 126 130 142 151 155 156 154 155
167 164 164 161 156 152 152 153 151 152 153 153 152 147 148 155 154 150 154 157 154 149 146 147 147 141 134 135 135 124 120 124 127 132 133 131 135 142 146 146 145 148
157 157 155 153 151 147 147 148 147 148 147 144 146 149 151 152 148 148 153 149 142 138 135 134 130 125 125 130 132 128 125 121 115 122 133 138 140 144 145 143 143 145
143 148 149 150 151 146 146 147 145 147 145 142 147 148 144 144 143 140 139 135 130 125 124 123 118 112 113 119 127 132 132 128 122 118 120 124 130 139 143 141 141 142
139 142 145 150 154 154 154 151 149 149 145 140 138 134 133 138 137 130 127 125 121 118 117 115 111 107 107 111 120 127 125 125 127 125 126 125 123 129 137 138 135 129
146 146 143 145 148 151 154 152 147 142 135 126 120 118 120 123 123 121 119 117 116 115 113 111 108 106 107 108 112 114 110 109 109 105 110 121 119 118 125 129 125 118
145 143 136 133 131 133 139 142 137 130 126 121 115 113 111 110 112 112 109 110 112 110 108 110 108 106 107 107 108 107 103 99 94 84 85 95 102 107 116 124 124 121
137 132 125 125 124 124 129 131 127 122 120 119 116 113 110 108 108 106 103 103 103 102 104 105 104 104 107 109 108 103 96 87 80 77 78 80 83 93 105 116 122 125
132 127 122 122 121 119 119 120 118 115 114 115 114 112 109 107 106 105 104 103 101 102 103 100 95 95 102 109 114 109 94 78 72 75 78 73 71 76 82 91 101 109
126 125 122 120 115 109 107 109 109 108 109 110 108 105 105 104 103 103 103 103 104 103 102 100 93 87 91 97 105 108 98 85 82 85 84 78 75 75 75 79 87 91
116 120 122 123 119 110 105 107 110 109 110 113 111 106 104 101 101 102 101 103 107 103 101 104 97 84 81 80 86 98 104 105 108 104 99 97 94 93 92 90 91 93
103 110 116 121 121 116 112 114 118 117 116 119 119 114 110 110 111 110 104 100 100 96 94 98 93 83 78 80 87 103 114 116 117 108 102 107 111 110 109 107 105 104
98 105 110 113 115 117 116 117 120 122 121 122 122 120 120 120 120 116 107 100 98 96 93 92 90 84 82 89 98 107 113 116 114 109 108 114 115 111 106 102 102 100
86 96 104 109 113 117 119 120 122 125 126 126 126 128 128 123 119 115 107 100 97 97 92 88 85 81 81 87 94 98 105 112 108 103 108 115 113 106 101 95 89 82
Height
798 798 799 800 802 804 805 806 806 807 808 809 811 812 814 815 817 819 820 822 823 825 826 828 829 830 832 833 835 837 838 839 840 841 842 842 843 843 844 844 845 846
798 799 799 801 802 804 806 806 806 807 808 809 810 812 814 815 817 819 820 821 823 825 826 828 829 830 831 833 834 836 837 837 838 840 841 841 842 842 843 843 844 845
797 798 799 801 802 804 805 806 807 807 808 809 810 812 814 815 817 819 820 821 823 825 826 828 829 829 831 832 833 835 835 836 837 839 840 840 841 841 842 842 843 844
797 798 799 800 802 804 805 806 807 807 808 809 810 812 814 815 817 819 820 821 823 824 826 827 829 829 831 832 833 834 835 836 837 838 839 840 841 841 842 842 843 843
797 798 799 801 802 804 805 805 806 807 808 809 811 813 814 816 817 819 820 821 822 824 826 827 829 830 831 832 833 834 835 836 836 837 838 839 841 841 842 842 843 843
796 798 801 802 802 803 805 805 806 807 808 809 811 813 814 816 817 818 819 820 822 824 826 827 829 830 830 831 832 834 835 835 836 837 838 839 840 841 842 842 842 843
793 797 801 802 802 803 805 805 806 807 808 809 811 813 814 816 817 818 819 820 822 824 826 827 829 829 830 831 832 833 834 835 836 836 837 838 840 841 842 842 842 843
791 795 799 801 801 803 804 805 806 806 807 809 810 812 813 815 816 817 819 821 823 825 826 828 829 830 830 831 832 833 834 835 836 836 837 838 839 840 841 841 842 843
790 794 797 799 800 802 803 804 806 807 807 808 809 811 813 814 816 818 819 821 823 825 827 828 829 830 831 832 832 833 834 835 836 836 837 838 839 840 841 841 842 842
790 792 795 797 799 800 801 803 805 807 807 808 809 810 812 814 816 818 820 822 824 826 827 829 830 830 831 832 832 833 835 835 836 836 837 838 838 839 840 841 841 842
789 789 793 797 798 798 800 803 804 805 807 808 809 810 812 814 817 819 821 822 824 826 828 829 830 831 831 832 833 834 835 835 836 836 837 837 838 839 840 840 841 841
788 789 792 796 798 798 800 803 803 805 807 809 809 811 812 814 817 819 821 823 825 826 828 829 830 831 832 832 833 834 835 835 836 836 837 837 838 839 839 840 841 842
789 790 792 796 798 798 801 803 803 805 807 808 810 811 813 815 817 820 822 823 825 826 827 828 829 831 831 832 833 834 835 835 836 837 837 837 838 839 840 841 842 843
789 791 793 797 798 798 801 803 804 806 807 808 810 811 813 816 817 820 822 823 824 825 826 828 829 830 831 832 834 835 835 836 837 837 837 838 839 839 840 841 842 844
788 790 793 797 798 798 801 803 804 807 808 809 811 813 815 816 818 820 821 822 823 824 826 828 829 830 831 833 834 835 836 836 837 838 838 838 839 840 841 842 843 844
788 790 794 798 799 799 802 804 805 807 809 810 812 813 815 816 818 820 820 822 823 824 825 828 829 831 832 833 834 835 836 837 837 838 838 839 839 840 841 842 844 845
787 791 794 797 799 800 802 804 806 808 809 810 812 813 814 816 817 819 820 822 824 824 826 828 830 831 833 834 835 836 837 837 838 838 839 839 840 841 842 843 844 846
787 791 794 797 799 800 802 804 806 807 808 810 812 813 815 816 818 819 820 822 824 825 827 829 831 832 833 834 835 836 837 837 838 839 839 840 840 841 842 843 844 846
789 793 795 797 799 801 802 803 806 807 808 810 812 814 815 817 819 820 822 824 825 826 828 830 832 833 833 835 836 837 837 838 838 839 839 840 841 842 843 844 844 845
790 793 795 797 800 801 802 803 805 806 807 809 812 814 816 818 820 821 823 825 826 828 829 831 832 833 834 835 836 837 838 838 839 839 840 841 842 843 843 844 845 846
791 793 796 798 801 802 802 804 806 807 808 809 812 815 818 819 820 822 824 826 827 829 830 831 833 834 834 835 836 837 838 838 839 840 840 842 843 843 844 845 846 847
792 794 797 799 802 803 803 805 807 809 810 811 813 816 819 820 822 823 825 827 829 830 831 832 833 834 835 835 836 837 837 838 839 840 841 842 843 843 844 845 846 847
795 796 798 800 803 804 805 807 809 811 813 814 815 818 820 821 823 824 826 828 829 831 832 833 833 834 835 836 836 837 838 838 839 840 840 842 843 844 845 845 847 847
799 799 800 802 804 806 808 810 811 814 816 816 817 819 821 823 824 826 828 829 830 831 832 833 834 835 836 837 837 838 839 839 839 839 840 842 843 844 845 845 846 848
804 803 804 805 807 809 811 812 813 815 817 818 820 821 823 825 826 827 829 830 831 833 834 834 835 836 837 838 839 839 839 839 839 839 841 843 844 844 845 845 847 848
808 808 809 809 810 812 813 814 815 817 819 820 822 823 825 826 828 829 830 832 833 834 835 836 837 838 839 840 840 840 840 840 840 840 841 843 844 844 845 847 848 849